Hourly Data Report for August 12, 2019

QUALICUM BEACH AIRPORT
BRITISH COLUMBIA
Current Station Operator: ECCC - MSC

49°20'14.000" N
124°23'38.000" W
58.20 m
1026562
71766
VOQ

Download Data

Hourly Data (August 2019)
Hourly Data Report for August 12, 2019
TIME
LST
Temp Definition
°C
Dew Point Definition
°C
Rel Hum Definition
%
Precip. Amount Definition
mm

Wind Dir Definition
10's deg

Wind Spd Definition
km/h
Visibility Definition
km
Stn Press Definition
kPa
Hmdx Definition


Wind Chill Definition


Weather Definition


00:00 17.3 14.1 82 0.0   0   101.23     LegendNANA
01:00 16.9 13.9 83 0.0 28 1   101.22     LegendNANA
02:00 15.9 13.7 87 0.0 22 2   101.23     LegendNANA
03:00 15.8 13.7 87 0.0 23 3   101.23     LegendNANA
04:00 15.6 13.4 87 0.0 22 2   101.26     LegendNANA
05:00 15.9 13.5 86 0.0 29 1   101.28     LegendNANA
06:00 16.2 13.5 84 0.0 28 2   101.29     LegendNANA
07:00 17.2 14.0 81 0.0 6 1   101.32     LegendNANA
08:00 18.0 14.1 78 0.0 10 3   101.33     LegendNANA
09:00 18.1 15.0 82 0.0 9 11   101.34     LegendNANA
10:00 18.6 14.9 79 0.0 9 14   101.34     LegendNANA
11:00 19.0 15.0 78 0.0 9 13   101.33     LegendNANA
12:00 19.1 14.9 77 0.0 9 12   101.33     LegendNANA
13:00 20.4 14.9 71 0.0 9 15   101.30     LegendNANA
14:00 21.2 14.1 64 0.0 11 15   101.26 25   LegendNANA
15:00 19.8 14.1 70 0.0 5 6   101.25     LegendNANA
16:00 21.1 13.6 62 0.0 13 8   101.23     LegendNANA
17:00 21.3 13.9 63 0.0 10 7   101.20 25   LegendNANA
18:00 21.0 13.8 63 0.0 10 6   101.17     LegendNANA
19:00 20.9 14.0 65 0.0 16 3   101.16     LegendNANA
20:00 18.4 14.2 76 0.0 0 1   101.20     LegendNANA
21:00 16.8 14.0 83 0.0 0 1   101.22     LegendNANA
22:00 16.1 13.6 85 0.0 0 1   101.22     LegendNANA
23:00 15.7 13.6 87 0.0 27 2   101.24     LegendNANA

Notes on Data Quality.

Legend

  • E = Estimated
  • M = Missing
  • NA = Not Available*
  • [empty] = Indicates an unobserved value
Date modified: